[[{"header":{"parameterUnit":"m.s-1","parameterCategory":1,"la1":30.2991,"la2":30.254,"lo1":-89.0895,"lo2":-89.0444,"dy":0.0017,"dx":0.0017,"nx":28,"ny":28,"refTime":"2023-10-17T09:00:00:Z","depth":0,"parameterNumber":2,"parameterNumberName":"U-component_of_WINDS"},"data":[0,0,0,0,0,0,0,0,0,0,0,0,0,0,0,0,0,0,0,0,0,0,0,0,0,0,0,0,0,0,0,0,0,0,0,0,0,0,0,0,0,0,0,0,0,0,0,0,0,0,0,0,0,0,0,0,0,0,-1.3989,-1.3989,0,-1.3993,-1.3993,-1.3993,-1.3981,-1.398,-1.398,-1.398,-1.3984,-1.3985,-1.3985,0,0,0,0,0,0,0,0,0,0,0,0,0,-1.3972,-1.3972,-1.3989,-1.3989,-1.3989,-1.3993,-1.3993,-1.3993,-1.3981,-1.398,-1.398,-1.398,-1.3984,-1.3985,-1.3985,0,0,0,0,0,0,0,0,0,0,0,0,0,-1.3978,-1.3972,-1.3989,-1.3983,-1.3983,-1.3993,-1.3993,-1.3993,-1.3981,-1.398,-1.398,-1.3979,-1.3984,-1.3985,-1.3985,-1.4001,0,0,-1.3988,-1.3988,0,0,0,0,0,0,0,0,-1.3977,-1.3978,-1.3984,-1.3984,-1.3983,-1.3986,-1.3989,-1.3996,-1.3981,-1.3982,-1.398,-1.3979,-1.3985,-1.3986,-1.3988,-1.4001,-1.4001,-1.3988,-1.3988,-1.3988,-1.3989,0,0,0,0,0,0,0,-1.3977,-1.3978,-1.399,-1.3984,-1.3984,-1.3981,-1.3981,-1.399,-1.3987,-1.3982,-1.3981,-1.3981,-1.3985,-1.3987,-1.3988,-1.4001,-1.3988,-1.3988,-1.3989,-1.3989,-1.4028,-1.4029,0,0,0,0,0,0,-1.3977,-1.3978,-1.399,-1.3991,-1.3979,-1.3982,-1.3982,-1.3986,-1.3986,-1.3986,-1.3982,-1.3981,-1.3986,-1.3987,-1.3988,-1.4006,-1.3988,-1.3989,-1.3989,-1.4028,-1.4028,-1.4029,0,0,0,0,0,0,-1.3977,-1.3978,-1.399,-1.3984,-1.3985,-1.3983,-1.3987,-1.3986,-1.3988,-1.3987,-1.3986,-1.3985,-1.3986,-1.3987,-1.3998,-1.4006,-1.3989,-1.399,-1.4027,-1.4028,-1.4029,-1.4042,0,0,0,0,0,0,-1.3976,-1.3978,-1.3984,-1.3984,-1.3986,-1.4,-1.3987,-1.3986,-1.3989,-1.3988,-1.3989,-1.3989,-1.3986,-1.3997,-1.3999,-1.4007,-1.3991,-1.4026,-1.4027,-1.4028,-1.4041,-1.4044,-1.4046,0,0,0,0,0,-1.3976,-1.3988,-1.3984,-1.3986,-1.3992,-1.4,-1.4001,-1.3997,-1.399,-1.3996,-1.3995,-1.3989,-1.4005,-1.3998,-1.4,-1.4008,-1.4025,-1.4027,-1.4028,-1.404,-1.4043,-1.4046,0,0,0,0,0,0,-1.3988,-1.3987,-1.3984,-1.3996,-1.3998,-1.3998,-1.4005,-1.4,-1.4004,-1.4003,-1.3998,-1.3998,-1.401,-1.4011,-1.4003,-1.4024,-1.4014,-1.4016,-1.4023,-1.4025,-1.4028,-1.4027,-1.3991,0,0,0,0,0,-1.3992,-1.3998,-1.3998,-1.4008,-1.401,-1.4007,-1.401,-1.4007,-1.4009,-1.401,-1.401,-1.4013,-1.4018,-1.4022,-1.4027,-1.4042,-1.4042,-1.4049,-1.4051,-1.4053,-1.4054,-1.4061,-1.4064,-1.4034,-1.4034,-1.4033,0,0,-1.4001,-1.4001,-1.4005,-1.4011,-1.4012,-1.4019,-1.4008,-1.4015,-1.402,-1.4011,-1.4021,-1.4022,-1.4024,-1.4037,-1.4042,-1.4038,-1.4063,-1.4055,-1.4056,-1.4056,-1.4063,-1.4066,-1.4069,-1.4034,-1.4034,-1.4034,0,0,-1.4019,-1.4021,-1.403,-1.4031,-1.4034,-1.4032,-1.4034,-1.4035,-1.4035,-1.4045,-1.4039,-1.4045,-1.4055,-1.4057,-1.4059,-1.408,-1.4074,-1.4082,-1.4094,-1.4101,-1.4103,-1.4105,-1.4112,-1.4115,-1.4084,-1.4084,-1.4084,0,-1.403,-1.4039,-1.4035,-1.4043,-1.4045,-1.4038,-1.4047,-1.4049,-1.4053,-1.4056,-1.405,-1.4063,-1.4064,-1.4077,-1.4082,-1.4085,-1.4087,-1.4081,-1.4103,-1.4105,-1.4107,-1.4114,-1.4116,-1.4085,-1.4084,-1.4084,-1.4084,0,-1.4051,-1.4058,-1.4065,-1.4069,-1.4072,-1.4081,-1.4079,-1.4083,-1.408,-1.4079,-1.409,-1.4091,-1.4097,-1.41,-1.4097,-1.4113,-1.411,-1.4104,-1.4094,-1.4111,-1.4117,-1.4119,-1.4086,-1.4085,-1.4085,-1.4085,0,0,-1.4076,-1.4078,-1.4081,-1.4082,-1.4085,-1.409,-1.4099,-1.4104,-1.4108,-1.4112,-1.4118,-1.4128,-1.4123,-1.4125,-1.4123,-1.413,-1.4145,-1.4123,-1.4123,-1.4126,-1.4162,-1.4165,-1.4168,-1.4143,-1.4143,-1.4143,-1.4162,0,-1.4093,-1.4107,-1.4105,-1.4119,-1.4125,-1.4119,-1.4126,-1.4129,-1.4129,-1.4134,-1.4134,-1.4141,-1.4134,-1.4136,-1.4142,-1.4142,-1.4152,-1.4141,-1.4148,-1.4149,-1.4146,-1.4171,-1.4175,-1.4192,-1.4164,-1.4164,-1.4165,0,-1.4115,-1.4119,-1.4134,-1.4136,-1.4138,-1.4145,-1.415,-1.4155,-1.4158,-1.4158,-1.4162,-1.4158,-1.4167,-1.4158,-1.4171,-1.4163,-1.4166,-1.4167,-1.4168,-1.4167,-1.4157,-1.417,-1.4197,-1.4199,-1.4168,-1.4168,-1.4168,0,-1.4131,-1.414,-1.415,-1.4152,-1.4155,-1.416,-1.4161,-1.4164,-1.4167,-1.4172,-1.4174,-1.418,-1.4183,-1.4188,-1.4186,-1.418,-1.4198,-1.419,-1.4198,-1.4198,-1.4201,-1.42,-1.4227,-1.4205,-1.4205,-1.4205,-1.4205,0,-1.415,-1.4159,-1.4157,-1.4163,-1.4173,-1.417,-1.418,-1.4181,-1.4184,-1.419,-1.4186,-1.4192,-1.419,-1.4196,-1.4195,-1.4205,-1.4207,-1.4207,-1.4206,-1.4206,-1.4206,-1.4207,-1.4206,-1.4206,-1.4205,-1.4205,-1.4205,0,-1.4169,-1.4168,-1.4178,-1.418,-1.4181,-1.4188,-1.419,-1.4195,-1.4196,-1.4204,-1.4205,-1.4205,-1.4212,-1.4212,-1.422,-1.4219,-1.4231,-1.423,-1.423,-1.4229,-1.4237,-1.4236,-1.4265,-1.4268,-1.4245,-1.4245,-1.4245,0,-1.418,-1.4187,-1.419,-1.4193,-1.4195,-1.4201,-1.4205,-1.4203,-1.4207,-1.4212,-1.4217,-1.4224,-1.4229,-1.424,-1.4241,-1.4247,-1.4245,-1.4255,-1.4246,-1.4246,-1.4244,-1.4243,-1.4244,-1.4256,-1.4257,-1.4257,-1.4257,0,-1.4201,-1.42,-1.4205,-1.4211,-1.4215,-1.4219,-1.4223,-1.4226,-1.4225,-1.423,-1.4237,-1.4241,-1.4249,-1.4256,-1.4262,-1.4264,-1.426,-1.426,-1.4262,-1.4262,-1.4261,-1.4261,-1.4233,-1.4259,-1.4259,-1.4259,-1.4259,-1.4258,-1.4215,-1.4221,-1.4224,-1.423,-1.4233,-1.4236,-1.4242,-1.4243,-1.4249,-1.4255,-1.4254,-1.4262,-1.4265,-1.4273,-1.4276,-1.4282,-1.4278,-1.4282,-1.4282,-1.4283,-1.4283,-1.4261,-1.4283,-1.4283,-1.4283,-1.4283,-1.4283,0,-1.4235,-1.4237,-1.4242,-1.4248,-1.4253,-1.4249,-1.4254,-1.4258,-1.4265,-1.4269,-1.4274,-1.4282,-1.4289,-1.429,-1.4297,-1.4302,-1.43,-1.4303,-1.4302,-1.4303,-1.4286,-1.4283,-1.4304,-1.4304,-1.4304,-1.4304,-1.4304,-1.4304,-1.4246,-1.4255,-1.4255,-1.4265,-1.4267,-1.4275,-1.4277,-1.4281,-1.4284,-1.4293,-1.4298,-1.43,-1.4303,-1.431,-1.4316,-1.4316,-1.4318,-1.4322,-1.4321,-1.4306,-1.4304,-1.4302,-1.4299,-1.4322,-1.4323,-1.4337,-1.4337,-1.4337]},{"header":{"parameterUnit":"m.s-1","parameterCategory":1,"la1":30.2991,"la2":30.254,"lo1":-89.0895,"lo2":-89.0444,"dy":0.0017,"dx":0.0017,"nx":28,"ny":28,"refTime":"2023-10-17T09:00:00:Z","depth":0,"parameterNumber":3,"parameterNumberName":"V-component_of_WINDS"},"data":[0,0,0,0,0,0,0,0,0,0,0,0,0,0,0,0,0,0,0,0,0,0,0,0,0,0,0,0,0,0,0,0,0,0,0,0,0,0,0,0,0,0,0,0,0,0,0,0,0,0,0,0,0,0,0,0,0,0,2.3844,2.3844,0,2.3874,2.3875,2.3875,2.3868,2.3867,2.3867,2.3866,2.3894,2.3895,2.3897,0,0,0,0,0,0,0,0,0,0,0,0,0,2.3777,2.3778,2.3844,2.3844,2.3845,2.3874,2.3875,2.3875,2.3868,2.3867,2.3866,2.3866,2.3894,2.3895,2.3897,0,0,0,0,0,0,0,0,0,0,0,0,0,2.3806,2.3779,2.3844,2.3845,2.3845,2.3874,2.3875,2.3875,2.3868,2.3867,2.3866,2.3865,2.3893,2.3895,2.3897,2.3926,0,0,2.3903,2.3904,0,0,0,0,0,0,0,0,2.3805,2.3809,2.3844,2.3845,2.3845,2.3866,2.3861,2.3892,2.3868,2.3859,2.3866,2.3865,2.3885,2.3888,2.3895,2.3928,2.3929,2.3903,2.3904,2.3905,2.3906,0,0,0,0,0,0,0,2.3803,2.3808,2.3856,2.3845,2.3845,2.3843,2.3846,2.3867,2.3877,2.386,2.3859,2.3863,2.3886,2.3894,2.3896,2.3929,2.3903,2.3905,2.3906,2.3907,2.3986,2.3987,0,0,0,0,0,0,2.3801,2.3806,2.3855,2.3857,2.3823,2.3845,2.3848,2.386,2.3876,2.3878,2.3864,2.3863,2.3891,2.3894,2.3897,2.3932,2.3905,2.3907,2.3908,2.3985,2.3987,2.3988,0,0,0,0,0,0,2.3799,2.3805,2.3854,2.3831,2.3837,2.3847,2.386,2.3861,2.387,2.388,2.3881,2.3871,2.389,2.3894,2.3919,2.3933,2.3908,2.391,2.3984,2.3986,2.3987,2.4002,0,0,0,0,0,0,2.3797,2.3805,2.3817,2.3832,2.3839,2.3876,2.3861,2.3863,2.3873,2.3872,2.3886,2.3888,2.389,2.3916,2.3921,2.3935,2.3911,2.3983,2.3985,2.3987,2.4,2.4004,2.4007,0,0,0,0,0,2.3795,2.3819,2.3817,2.3823,2.3854,2.3877,2.3881,2.3883,2.3874,2.3886,2.3892,2.3887,2.3931,2.3919,2.3924,2.3939,2.3982,2.3984,2.3986,2.3999,2.4003,2.4007,0,0,0,0,0,0,2.3804,2.3821,2.3819,2.3849,2.3862,2.3876,2.389,2.3888,2.3903,2.3901,2.3903,2.3906,2.3931,2.3938,2.3924,2.3968,2.3955,2.3958,2.3963,2.3967,2.397,2.3967,2.3913,0,0,0,0,0,2.381,2.3828,2.3842,2.3867,2.3873,2.3881,2.3891,2.3892,2.3905,2.391,2.3918,2.393,2.3946,2.3957,2.3973,2.4001,2.4004,2.4014,2.4017,2.402,2.4022,2.4037,2.4042,2.3995,2.3995,2.3995,0,0,2.3821,2.3833,2.3844,2.3869,2.3879,2.3897,2.3885,2.3905,2.3918,2.3913,2.3937,2.3943,2.3957,2.3984,2.3996,2.399,2.4036,2.4023,2.4025,2.4026,2.404,2.4045,2.4049,2.3996,2.3996,2.3996,0,0,2.3851,2.3862,2.3884,2.3895,2.391,2.3915,2.3921,2.3935,2.3939,2.3964,2.396,2.3975,2.4004,2.4013,2.4022,2.4056,2.4051,2.4061,2.4077,2.4092,2.4096,2.4099,2.411,2.4114,2.4064,2.4064,2.4064,0,2.3863,2.3891,2.3895,2.3916,2.3926,2.3923,2.3945,2.3954,2.3974,2.3981,2.3974,2.4009,2.4018,2.4047,2.4055,2.4063,2.4068,2.4059,2.4095,2.4098,2.4101,2.4112,2.4116,2.4065,2.4064,2.4064,2.4064,0,2.3905,2.3924,2.394,2.396,2.3972,2.3993,2.3999,2.4011,2.4011,2.4017,2.4041,2.4052,2.4069,2.4076,2.4076,2.4105,2.4101,2.4095,2.4081,2.4107,2.4117,2.4121,2.4066,2.4066,2.4065,2.4065,0,0,2.3941,2.3963,2.3969,2.3978,2.3995,2.401,2.403,2.4048,2.4058,2.4071,2.4088,2.4112,2.4106,2.4116,2.4117,2.413,2.4156,2.4122,2.4122,2.4127,2.4187,2.4191,2.4196,2.4153,2.4154,2.4155,2.4186,0,2.3972,2.4009,2.4013,2.4045,2.4063,2.406,2.4078,2.409,2.4095,2.411,2.4116,2.4133,2.4125,2.4131,2.4144,2.415,2.4167,2.4148,2.4167,2.4168,2.4163,2.4201,2.4205,2.4234,2.419,2.419,2.4191,0,2.4013,2.4029,2.4063,2.4078,2.4085,2.4101,2.4118,2.4132,2.4146,2.4149,2.416,2.4159,2.4179,2.4167,2.4194,2.418,2.4188,2.4193,2.4194,2.4195,2.418,2.4202,2.4243,2.4247,2.4197,2.4197,2.4196,0,2.4034,2.4064,2.4089,2.4096,2.4114,2.4125,2.4133,2.4146,2.4156,2.4171,2.4177,2.4194,2.4202,2.4215,2.4218,2.4209,2.4245,2.4232,2.4247,2.4247,2.4254,2.4253,2.4296,2.4261,2.4261,2.4261,2.4261,0,2.4068,2.4089,2.4099,2.4113,2.4136,2.4141,2.4163,2.417,2.4182,2.4197,2.4196,2.421,2.4215,2.4229,2.4232,2.4254,2.4258,2.426,2.4261,2.426,2.4259,2.4265,2.4262,2.4262,2.4262,2.4261,2.4261,0,2.4096,2.4103,2.413,2.4145,2.4149,2.4165,2.4178,2.4192,2.4197,2.4217,2.4222,2.423,2.4248,2.4253,2.4273,2.4275,2.43,2.4299,2.4296,2.4296,2.431,2.4308,2.4356,2.4362,2.4324,2.4325,2.4325,0,2.4117,2.4133,2.415,2.4161,2.4169,2.4186,2.4197,2.4202,2.4213,2.423,2.4241,2.4259,2.4273,2.4301,2.4308,2.4324,2.4323,2.4339,2.4325,2.4324,2.4322,2.4321,2.4322,2.4341,2.4341,2.4342,2.4342,0,2.4152,2.4155,2.4171,2.4189,2.4202,2.4216,2.4229,2.4238,2.4245,2.4257,2.4276,2.4287,2.4308,2.4325,2.4341,2.4348,2.4346,2.4346,2.435,2.4349,2.4346,2.4347,2.4302,2.4345,2.4345,2.4344,2.4344,2.4344,2.4176,2.419,2.4205,2.4223,2.4233,2.4246,2.426,2.4267,2.4283,2.4301,2.4303,2.4323,2.4335,2.4357,2.4365,2.4379,2.4374,2.4381,2.4382,2.4383,2.4384,2.4345,2.4382,2.4382,2.4382,2.4382,2.4382,0,2.4211,2.422,2.4237,2.4256,2.427,2.4268,2.4282,2.4294,2.4311,2.4324,2.4338,2.4359,2.4375,2.4384,2.44,2.441,2.441,2.4414,2.4413,2.4415,2.4388,2.4382,2.4415,2.4415,2.4415,2.4415,2.4415,2.4415,2.4231,2.4254,2.4259,2.4287,2.4296,2.4316,2.4324,2.4335,2.4345,2.4369,2.4383,2.4389,2.44,2.4417,2.4432,2.4434,2.4439,2.4444,2.4446,2.442,2.4417,2.4413,2.4408,2.4446,2.4446,2.4472,2.4472,2.4472]}]]